Погода в Решетниковой

Россия / Свердловская область     57°29′02″N   64°47′15″E
темп.,
°C
ветер,
м/с
пор.,
м/с
влажн.,
%
обл.,
%
осадки,
мм/ч
давл.,
гПа
погр.,
м
17 апреля, сб
сб1723:00+2всв24582 0.0 102872
02:000юв23673 0.0 102849
05:00−1ю22690 0.0 102838
08:00+3юз36530 0.0 1026314
11:00+8зюз46385 0.0 10241447
14:00+11з693591 0.0 10222271
17:00+11зсз583441 0.0 10202099
20:00+6зюз375472 0.0 1018129
18 апреля, вс
вс1823:00+5з3126478 0.0 1017331
02:00+4з41270100 0.0 1014534
05:00+4з61376100 0.0 1013734
08:00+1с61282100 0.4 10151034
11:00+1ссв71050100 0.4 10201428
14:00+2ссв79319 0.0 10241939
17:00+1ссв682845 0.0 10272184
20:00−2ссв48405 0.0 1030481
19 апреля, пн
пн1923:00−3св36450 0.0 1032786
02:00−4ссв24500 0.0 1033590
05:00−5ссз24550 0.0 1035481
08:00−4с47351 0.0 10361240
11:00−1с4630100 0.0 10362065
14:00+2с4627100 0.0 10352488
17:00+2с462661 0.0 10342316
20:00−2ссв22430 0.0 103521
20 апреля, вт
вт2023:00−4св11485 0.0 103510
02:00−4зюз11475 0.0 103511
05:00−4зюз25495 0.0 1035112
08:00+1з473931 0.0 1034418
11:00+5зсз5732100 0.0 10321274
14:00+8зсз573344 0.0 10301444
17:00+9сз58385 0.0 10291683
20:00+5зсз365578 0.0 1029104
21 апреля, ср
ср2123:00+3зсз39681 0.0 1029165
02:00+2зсз39730 0.0 1029189
05:000зсз39800 0.0 1030190
08:00+4сз48645 0.0 1031421
11:00+9ссз46485 0.0 10311098
14:00+12ссз45385 0.0 10311586
17:00+13с344129 0.0 10321730
20:00+9в366099 0.0 1034285